Location: Biltmore Gardens
(41.6070°N, 83.4666°W)
Time: 21:37:18
(UTC+00:00)

A-11 Canister half - Pass Details

Date: 22 April 2021
Orbit: 1526 x 1682 km, 47.3° (Epoch: 16 May)

Event Time Altitude Azimuth Distance (km) Brightness Sun altitude
Rises 05:15:21 0° 286° (WNW) 4,926 11.9 -36.0°
Reaches altitude 10° 05:21:53 10° 256° (WSW) 3,908 11.0 -36.1°
Enters shadow 05:22:14 10° 254° (WSW) 3,880 11.0 -36.1°
